Shelbyville, IN

7:42 PM EDT on July 24, 2017 (GMT -0400)
Shelbyville Municipal

Weather History for KGEZ - November, 2012

Change the Weather History Date:

Friday, November 2, 2012

  Actual Average Record
Temperature  
Mean Temperature 42 °F 49 °F  
Max Temperature 53 °F 60 °F 81 °F (2016)
Min Temperature 31 °F 39 °F 22 °F (2014)
Degree Days  
Heating Degree Days 23 16  
Month to date heating degree days 45 32  
Since 1 July heating degree days 494 467  
Cooling Degree Days 0 0  
Month to date cooling degree days 0 0  
Year to date cooling degree days 1417 913  
Moisture  
Dew Point 30 °F    
Average Humidity 65    
Maximum Humidity 85    
Minimum Humidity 44    
Precipitation  
Precipitation 0.00 in 0.13 in 1.42 in (2004)
Month to date precipitation 0.00 0.27  
Year to date precipitation 25.08 36.83  
Sea Level Pressure  
Sea Level Pressure 29.98 in    
Wind  
Wind Speed 6 mph (North)    
Max Wind Speed 17 mph    
Max Gust Speed 30 mph    
Visibility 10 miles    
Events      
T = Trace of Precipitation, MM = Missing Value Source: NWS Daily Summary

Daily Weather History Graph

Daily Weather History Graph

Search for Another Location

Airport or City:

Trip Planner

Search our weather history database for the weather conditions in past years. The results will help you decide how hot, cold, wet, or windy it might be!

Date:

Astronomy

Nov. 02, 2012 Rise Set
Actual Time 8:13 AM EDT 6:39 PM EDT
Civil Twilight 7:45 AM EDT 7:07 PM EDT
Nautical Twilight 7:13 AM EDT 7:39 PM EDT
Astronomical Twilight 6:41 AM EDT 8:10 PM EDT
Moon 9:26 PM EDT (11/2) 11:32 AM EDT (11/2)
Length of Visible Light 11h 22m
Length of Day
10h 26m
Waning Gibbous, 87% of the Moon is Illuminated
Nov 2
Waning Gibbous
Nov 6
Last Quarter
Nov 13
New
Nov 20
First Quarter
Nov 28
Full

Hourly Weather History & Observations

Time (EDT) Temp. Windchill Dew Point Humidity Pressure Visibility Wind Dir Wind Speed Gust Speed Precip Events Conditions
12:53 AM 42.1 °F 39.2 °F 32.0 °F 67% 29.83 in 10.0 mi South 4.6 mph - N/A   Overcast
1:53 AM 37.9 °F - 30.9 °F 76% 29.83 in 10.0 mi Calm Calm - N/A   Partly Cloudy
2:53 AM 37.9 °F - 28.0 °F 68% 29.83 in 10.0 mi Calm Calm - N/A   Clear
3:53 AM 32.0 °F 26.4 °F 28.9 °F 88% 29.86 in 10.0 mi North 5.8 mph - N/A   Clear
4:53 AM 37.9 °F 32.7 °F 28.0 °F 68% 29.86 in 10.0 mi North 6.9 mph - N/A   Clear
5:53 AM 35.1 °F 30.1 °F 28.9 °F 78% 29.88 in 10.0 mi North 5.8 mph - N/A   Scattered Clouds
6:53 AM 35.1 °F 31.0 °F 28.9 °F 78% 29.91 in 10.0 mi North 4.6 mph - N/A   Clear
7:53 AM 32.0 °F 27.5 °F 28.0 °F 85% 29.93 in 10.0 mi NNW 4.6 mph - N/A   Clear
8:53 AM 34.0 °F 28.8 °F 28.9 °F 82% 29.96 in 10.0 mi NNW 5.8 mph - N/A   Clear
9:53 AM 42.1 °F 37.1 °F 33.1 °F 70% 29.99 in 10.0 mi North 8.1 mph - N/A   Clear
10:53 AM 46.0 °F 41.0 °F 33.1 °F 61% 30.01 in 10.0 mi North 10.4 mph - N/A   Clear
11:53 AM 46.9 °F - 32.0 °F 56% 30.02 in 10.0 mi North 13.8 mph - N/A   Clear
12:53 PM 48.9 °F - 30.9 °F 50% 30.03 in 10.0 mi NNE 8.1 mph - N/A   Clear
1:53 PM 50.0 °F - 30.9 °F 48% 30.02 in 10.0 mi NW 12.7 mph 19.6 mph N/A   Clear
2:53 PM 52.0 °F - 30.9 °F 45% 30.01 in 10.0 mi North 9.2 mph - N/A   Clear
3:53 PM 52.0 °F - 30.0 °F 43% 30.02 in 10.0 mi NNW 9.2 mph - N/A   Clear
4:53 PM 52.0 °F - 30.9 °F 45% 30.03 in 10.0 mi NW 5.8 mph - N/A   Clear
5:53 PM 50.0 °F - 32.0 °F 50% 30.04 in 10.0 mi NNW 5.8 mph - N/A   Clear
6:53 PM 46.0 °F 43.9 °F 32.0 °F 58% 30.04 in 10.0 mi North 4.6 mph - N/A   Clear
7:53 PM 44.1 °F 41.5 °F 30.9 °F 60% 30.06 in 10.0 mi NNE 4.6 mph - N/A   Clear
8:53 PM 41.0 °F - 30.9 °F 67% 30.07 in 10.0 mi Calm Calm - N/A   Clear
9:53 PM 39.0 °F 35.7 °F 30.9 °F 73% 30.08 in 10.0 mi North 4.6 mph - N/A   Clear
10:53 PM 37.0 °F 33.3 °F 30.0 °F 76% 30.09 in 10.0 mi North 4.6 mph - N/A   Clear
11:53 PM 36.0 °F 33.3 °F 30.0 °F 79% 30.10 in 10.0 mi NNW 3.5 mph - N/A   Clear